Погода в Пурпе

Россия / Ямало-Ненецкий автономный округ     64°28′34″N   76°41′37″E
темп.,
°C
ветер,
м/с
пор.,
м/с
влажн.,
%
обл.,
%
осадки,
мм/ч
давл.,
гПа
погр.,
м
17 августа, ср
ср1723:00+8ссз71276100 0.1 1010349
02:00+8ссз81474100 0.0 1010603
05:00+7ссз91380100 0.0 1011676
08:00+8ссз91081100 0.0 10101011
11:00+7ссз7984100 0.1 1011808
14:00+7ссз6787100 0.2 1012590
17:00+8ссз448398 0.2 1013480
20:00+8с338398 0.0 101481
18 августа, чт
чт1823:00+9ссз3480100 0.0 101571
02:00+9зсз348977 0.0 1016101
05:00+8сз4796100 0.0 1016131
08:00+12с57805 0.0 1017399
11:00+17с675618 0.0 1018983
14:00+18с784938 0.0 10181748
17:00+17с8954100 0.0 10181537
20:00+12с71264100 0.0 1019293
19 августа, пт
пт1923:00+10с7126491 0.0 1020271
02:00+7с611710 0.0 1020208
05:00+6с511773 0.0 1020248
08:00+10с786232 0.0 1020657
11:00+13с6751100 0.0 1020971
14:00+15ссз664482 0.0 10191194
17:00+15сз5544100 0.0 10191046
20:00+12зсз456991 0.0 101854
20 августа, сб
сб2023:00+12з4784100 0.7 1016167
02:00+13зюз61282100 1.3 1014257
05:00+12з61090100 2.4 1012277
08:00+11ссз8119286 1.2 1012493
11:00+10ссз91184100 1.3 1013723
14:00+9ссз101184100 0.0 1014746
17:00+8ссз81088100 0.1 1014594
20:00+7ссз71090100 0.3 1015481
21 августа, вс
вс2123:00+7с6991100 0.3 1016392
02:00+8с5894100 0.6 1017275
05:00+9с589673 0.6 1018218
08:00+12ссв78806 0.0 1020441
11:00+13ссв886184 0.0 1021684
14:00+12ссв896880 0.0 1023722
17:00+11с7974100 0.0 1024586
20:00+9с5107812 0.0 1025299